Weather History for Resolute, NU

Change the Weather History Date:

Sunday, October 14, 2012

  Actual Average Record
Temperature  
Mean Temperature 26 °F -  
Max Temperature 28 °F 13 °F 30 °F (2002)
Min Temperature 24 °F 4 °F -4 °F (2003)
Degree Days  
Heating Degree Days 39    
Moisture  
Dew Point 23 °F    
Average Humidity 83    
Maximum Humidity 86    
Minimum Humidity 73    
Precipitation  
Precipitation 0.00 in - - ()
Sea Level Pressure  
Sea Level Pressure 29.73 in    
Wind  
Wind Speed 7 mph ()    
Max Wind Speed 17 mph    
Max Gust Speed -    
Visibility 13.9 miles    
Events Snow    
Averages and records for this station are not official NWS values.
T = Trace of Precipitation, MM = Missing Value Source: Averaged Metar Reports

Daily Weather History Graph

Daily Weather History Graph

Search for Another Location

Airport:

Trip Planner

Search our weather history database for the weather conditions in past years. The results will help you decide how hot, cold, wet, or windy it might be!

Date:

Astronomy

Oct. 14, 2012 Rise Set
Actual Time 9:02 AM CDT 5:07 PM CDT
Civil Twilight 7:37 AM CDT 6:30 PM CDT
Nautical Twilight 6:06 AM CDT 8:02 PM CDT
Astronomical Twilight 4:24 AM CDT 9:42 PM CDT
Moon 7:55 AM CDT (10/14) 4:13 PM CDT (10/14)
Length of Visible Light 10h 52m
Length of Day
8h 04m
Waning Crescent, 1% of the Moon is Illuminated
Oct 14
Waning Crescent
Oct 15
New
Oct 21
First Quarter
Oct 29
Full
Nov 6
Last Quarter

Hourly Weather History & Observations

Time (CDT) Temp. Windchill Dew Point Humidity Pressure Visibility Wind Dir Wind Speed Gust Speed Precip Events Conditions
12:00 AM 28.4 °F 16.2 °F 24.8 °F 86% 29.66 in 8.0 mi ESE 17.3 mph - N/A Snow Light Snow
1:00 AM 28 °F - 25 °F 84% 29.67 in 2 mi ESE 15.0 mph - - Snow Light Snow
1:00 AM 28.4 °F 17.0 °F 24.8 °F 86% 29.67 in 12.0 mi ESE 15.0 mph - N/A Snow Light Snow
2:00 AM 28.4 °F 17.5 °F 24.8 °F 86% 29.68 in 12.0 mi ESE 13.8 mph - N/A Snow Light Snow
3:00 AM 28.4 °F 18.0 °F 24.8 °F 86% 29.68 in 6.0 mi ESE 12.7 mph - N/A Snow Light Snow
4:00 AM 28.4 °F 19.7 °F 24.8 °F 86% 29.69 in 15.0 mi ESE 9.2 mph - N/A Snow Light Snow
5:00 AM 28.4 °F 19.7 °F 24.8 °F 86% 29.70 in 15.0 mi ESE 9.2 mph - N/A Snow Light Snow
6:00 AM 28.4 °F 20.4 °F 24.8 °F 86% 29.71 in 15.0 mi ESE 8.1 mph - N/A Snow Light Snow
7:00 AM 28 °F - 24 °F 81% 29.70 in 15 mi ESE 8.1 mph - - Snow Light Snow
7:00 AM 28.4 °F 20.4 °F 24.8 °F 86% 29.70 in 15.0 mi ESE 8.1 mph - N/A Snow Light Snow
8:00 AM 28.4 °F 21.2 °F 24.8 °F 86% 29.71 in 15.0 mi ESE 6.9 mph - N/A Snow Light Snow
8:33 AM - - - N/A% - 15.0 mi ESE 4.6 mph - N/A   Overcast
9:00 AM 28.4 °F 24.6 °F 24.8 °F 86% 29.71 in 12.0 mi ESE 3.5 mph - N/A   Overcast
10:00 AM 28.4 °F 20.4 °F 24.8 °F 86% 29.71 in 15.0 mi East 8.1 mph - N/A   Overcast
10:14 AM - - - N/A% - 15.0 mi East 5.8 mph - N/A   Unknown
11:00 AM 28.4 °F 22.2 °F 24.8 °F 86% 29.72 in 15.0 mi East 5.8 mph - N/A Snow Light Snow
11:45 AM - - - N/A% - 15.0 mi Calm Calm - N/A   Unknown
12:00 PM 28.4 °F 23.3 °F 24.8 °F 86% 29.73 in 15.0 mi NNW 4.6 mph - N/A Snow Light Snow
1:00 PM 27 °F - 24 °F 81% 29.73 in 15 mi North 2.3 mph - - Snow Light Snow
1:00 PM 26.6 °F - 23.0 °F 86% 29.73 in 15.0 mi North 2.3 mph - N/A Snow Light Snow
2:00 PM 26.6 °F 20.0 °F 21.2 °F 80% 29.75 in 15.0 mi ENE 5.8 mph - N/A Snow Light Snow
2:10 PM - - - N/A% - 15.0 mi ENE 5.8 mph - N/A   Mostly Cloudy
3:00 PM 26.6 °F 22.6 °F 21.2 °F 80% 29.75 in 15.0 mi ENE 3.5 mph - N/A   Mostly Cloudy
4:00 PM 24.8 °F 17.9 °F 21.2 °F 86% 29.76 in 15.0 mi ENE 5.8 mph - N/A   Overcast
4:48 PM - - - N/A% - 15.0 mi ENE 2.3 mph - N/A   Overcast
5:00 PM 26.6 °F 21.2 °F 21.2 °F 80% 29.76 in 15.0 mi NE 4.6 mph - N/A   Overcast
5:52 PM - - - N/A% - 15.0 mi Calm Calm - N/A   Overcast
6:00 PM 26.6 °F - 21.2 °F 80% 29.78 in 15.0 mi Calm Calm - N/A   Overcast
7:00 PM 26 °F - 21 °F 73% 29.79 in 15 mi East 2.3 mph - -   Partly Cloudy
7:00 PM 26.6 °F - 21.2 °F 80% 29.79 in 15.0 mi East 2.3 mph - N/A   Overcast
8:00 PM 26.6 °F - 21.2 °F 80% 29.80 in 15.0 mi Calm Calm - N/A   Overcast
9:00 PM 26.6 °F - 19.4 °F 74% 29.80 in 15.0 mi Calm Calm - N/A   Overcast
10:00 PM 26.6 °F - 21.2 °F 80% 29.80 in 15.0 mi South 2.3 mph - N/A   Overcast
11:00 PM 26.6 °F - 21.2 °F 80% 29.81 in 15.0 mi Calm Calm - N/A   Overcast